Weather History for 40180 - October, 2013

Change the Weather History Date:

Wednesday, October 16, 2013

  Actual Average Record
Temperature  
Mean Temperature 72 °F -  
Max Temperature 82 °F 77 °F - ()
Min Temperature 62 °F 60 °F - ()
Cooling Degree Days 7    
Growing Degree Days 22 (Base 50)    
Moisture  
Dew Point 59 °F    
Average Humidity 62    
Maximum Humidity 73    
Minimum Humidity 44    
Precipitation  
Precipitation 0.00 in - - ()
Sea Level Pressure  
Sea Level Pressure 29.96 in    
Wind  
Wind Speed 4 mph ()    
Max Wind Speed 15 mph    
Max Gust Speed -    
Visibility 6.1 miles    
Events      
T = Trace of Precipitation, MM = Missing Value Source: Averaged Metar Reports

Daily Weather History Graph

Daily Weather History Graph

Search for Another Location

Airport or City:

Trip Planner

Search our weather history database for the weather conditions in past years. The results will help you decide how hot, cold, wet, or windy it might be!

Date:

Astronomy

Oct. 16, 2013 Rise Set
Actual Time 6:44 AM IDT 6:06 PM IDT
Civil Twilight 6:19 AM IDT 6:31 PM IDT
Nautical Twilight 5:51 AM IDT 6:59 PM IDT
Astronomical Twilight 5:23 AM IDT 7:28 PM IDT
Moon 4:27 PM IDT (10/16) 3:58 AM IDT (10/16)
Length of Visible Light 12h 11m
Length of Day
11h 22m
Waxing Gibbous, 92% of the Moon is Illuminated
Oct 16
Waxing Gibbous
Oct 19
Full
Oct 27
Last Quarter
Nov 3
New
Nov 10
First Quarter

Hourly Weather History & Observations

Time (IDT) Temp. Heat Index Dew Point Humidity Pressure Visibility Wind Dir Wind Speed Gust Speed Precip Events Conditions
12:20 AM 68.0 °F - 57.2 °F 68% 30.01 in - Variable 3.5 mph - N/A   Clear
12:50 AM 68.0 °F - 57.2 °F 68% 30.01 in - Variable 3.5 mph - N/A   Clear
1:20 AM 68.0 °F - 57.2 °F 68% 30.01 in - ESE 4.6 mph - N/A   Clear
1:50 AM 68.0 °F - 55.4 °F 64% 30.01 in - Variable 1.2 mph - N/A   Clear
2:20 AM 66.2 °F - 55.4 °F 68% 30.01 in - Variable 1.2 mph - N/A   Clear
2:50 AM 66.2 °F - 53.6 °F 64% 30.01 in - Calm Calm - N/A   Clear
3:00 AM 65 °F - 54 °F 59% 30.01 in 6 mi 1.2 mph - -  
3:20 AM 64.4 °F - 53.6 °F 68% 29.98 in - Calm Calm - N/A   Clear
3:50 AM 64.4 °F - 53.6 °F 68% 29.98 in - Calm Calm - N/A   Clear
4:20 AM 66.2 °F - 55.4 °F 68% 29.98 in - Variable 2.3 mph - N/A   Clear
4:50 AM 66.2 °F - 53.6 °F 64% 29.98 in - Variable 2.3 mph - N/A   Clear
5:20 AM 64.4 °F - 53.6 °F 68% 29.98 in - Calm Calm - N/A   Clear
5:50 AM 62.6 °F - 53.6 °F 72% 29.98 in - Calm Calm - N/A   Clear
6:20 AM 62.6 °F - 53.6 °F 72% 29.98 in - Variable 2.3 mph - N/A   Clear
6:50 AM 64.4 °F - 55.4 °F 73% 29.98 in 6.2 mi Variable 2.3 mph - N/A   Partly Cloudy
7:20 AM 66.2 °F - 55.4 °F 68% 30.01 in - Variable 2.3 mph - N/A   Clear
7:50 AM 68.0 °F - 55.4 °F 64% 30.01 in - Variable 2.3 mph - N/A   Clear
8:20 AM 69.8 °F - 55.4 °F 60% 30.01 in - Variable 1.2 mph - N/A   Clear
8:50 AM 71.6 °F - 57.2 °F 60% 30.01 in - Variable 2.3 mph - N/A   Clear
9:00 AM 72 °F - 57 °F 49% 30.01 in 6 mi 2.3 mph - -  
9:20 AM 75.2 °F - 59.0 °F 57% 30.01 in - Variable 1.2 mph - N/A   Clear
9:50 AM 78.8 °F - 60.8 °F 54% 30.01 in - Variable 1.2 mph - N/A   Clear
10:20 AM 77.0 °F - 59.0 °F 54% 30.01 in - NNW 5.8 mph - N/A   Clear
10:50 AM 78.8 °F - 59.0 °F 51% 29.98 in - NW 6.9 mph - N/A   Clear
11:20 AM 78.8 °F - 57.2 °F 47% 29.98 in - Variable 2.3 mph - N/A   Clear
11:50 AM 80.6 °F 80.8 °F 57.2 °F 45% 29.98 in - NW 5.8 mph - N/A   Clear
12:20 PM 80.6 °F 81.5 °F 60.8 °F 51% 29.95 in - NW 10.4 mph - N/A   Clear
12:50 PM 80.6 °F 81.5 °F 60.8 °F 51% 29.95 in - NW 11.5 mph - N/A   Clear
1:20 PM 80.6 °F 81.8 °F 62.6 °F 54% 29.95 in - NW 12.7 mph - N/A   Clear
1:50 PM 80.6 °F 81.5 °F 60.8 °F 51% 29.92 in - NW 11.5 mph - N/A   Clear
2:20 PM 80.6 °F 81.5 °F 60.8 °F 51% 29.92 in - NW 11.5 mph - N/A   Clear
2:50 PM 80.6 °F 81.8 °F 62.6 °F 54% 29.92 in - NW 11.5 mph - N/A   Clear
3:00 PM 80 °F - 62 °F 44% 29.91 in 6 mi NW 11.5 mph - -   Clear
3:20 PM 78.8 °F - 62.6 °F 57% 29.89 in - NW 12.7 mph - N/A   Clear
3:50 PM 78.8 °F - 62.6 °F 57% 29.89 in - NW 15.0 mph - N/A   Clear
4:20 PM 78.8 °F - 64.4 °F 61% 29.92 in - NW 13.8 mph - N/A   Clear
4:50 PM 77.0 °F - 64.4 °F 65% 29.89 in - NNW 12.7 mph - N/A   Clear
5:20 PM 77.0 °F - 62.6 °F 61% 29.89 in - NNW 12.7 mph - N/A   Clear
5:50 PM 77.0 °F - 64.4 °F 65% 29.89 in - NNW 11.5 mph - N/A   Clear
6:20 PM 75.2 °F - 64.4 °F 69% 29.89 in - NNW 11.5 mph - N/A   Clear
6:50 PM 75.2 °F - 64.4 °F 69% 29.92 in - NNW 9.2 mph - N/A   Clear
7:20 PM 75.2 °F - 64.4 °F 69% 29.92 in - North 8.1 mph - N/A   Clear
7:50 PM 75.2 °F - 64.4 °F 69% 29.92 in - North 5.8 mph - N/A   Clear
8:20 PM 75.2 °F - 64.4 °F 69% 29.92 in 6.2 mi North 4.6 mph - N/A   Partly Cloudy
8:50 PM 73.4 °F - 62.6 °F 69% 29.92 in 6.2 mi Variable 3.5 mph - N/A   Partly Cloudy
9:00 PM 74 °F - 63 °F 61% 29.93 in 6 mi 3.5 mph - -   Scattered Clouds
9:20 PM 73.4 °F - 62.6 °F 69% 29.92 in 6.2 mi Variable 2.3 mph - N/A   Partly Cloudy
9:50 PM 73.4 °F - 62.6 °F 69% 29.92 in - Variable 2.3 mph - N/A   Clear
10:20 PM 71.6 °F - 62.6 °F 73% 29.92 in - Variable 2.3 mph - N/A   Clear
10:50 PM 71.6 °F - 60.8 °F 69% 29.92 in - Variable 3.5 mph - N/A   Clear
11:20 PM 71.6 °F - 60.8 °F 69% 29.92 in - Variable 1.2 mph - N/A   Clear
11:50 PM 69.8 °F - 60.8 °F 73% 29.92 in - Variable 1.2 mph - N/A   Clear